sat.trackr.live / text

‹ back to catalog

STARLINK-37850

NORAD 69426 · 2026-126G

PAYLOAD ACTIVE UNKNOWN

§ Identity

Operator
Country
US
Launch date
2026-06-07
Launch site
AFWTR
Launch vehicle
Mass (kg)
RCS (m²)

Purposes: comms

External: N2YO · Heavens-Above · Gunter

§ Orbital elements

Epoch: 2026-09-20T01:03:57.863808Z

Period
93.91 min
Inclination
97.2849°
Eccentricity
0.0002146
Mean motion
15.33421170 rev/d
Perigee alt
464.1 km
Apogee alt
467.1 km
Semi-major
6,843.8 km
B*
4.0603e-4
RAAN
124.2686°
Arg perigee
56.2674°
Mean anomaly
303.8773°
Rev number
1,750

§ Raw data

STARLINK-378501 69426U 26126G   26263.04441972  .00013047  00000+0  40603-3 0  99942 69426  97.2849 124.2686 0002146  56.2674 303.8773 15.33421170 17501

JSON: /api/v1/satellites/69426 · /tle

For live sub-satellite position, see the globe view (requires WebGL).

§ Visibility from observer

Set your observer location to see the next 7 days of passes ≥ 10°. The values pass through the URL so the page stays shareable.

No JS? Fill the form by hand. The geolocation button needs JavaScript.